Temp
66 66 64 65 56 48 41 45 48 52 50 51 55 55 54 51 53 48 63 68 70 70 72 73 75 76 76 76 76 76 77 77 77 76 76 76 75 75 75 75 75 75 76 75 75 75 75 74 74
64 69 65 55 48 41 43 46 50 53 55 55 56 54 54 49 57 60 61 67 70 71 71 72 73 75 75 75 75 76 76 77 77 76 76 75 75 75 75 74 74 75 75 75 75 74 74 74 73
66 67 62 50 41 42 43 48 50 53 54 53 52 54 52 53 57 59 63 69 70 70 71 71 73 75 75 75 75 75 76 76 76 76 75 75 74 74 74 74 74 74 74 74 74 74 73 73 72
65 64 56 49 43 45 46 51 53 53 53 53 52 50 54 59 58 61 66 69 69 69 70 71 73 75 75 75 75 75 75 76 76 75 75 74 74 73 73 73 73 73 73 74 73 73 72 72 71
60 56 49 44 43 45 48 53 54 54 51 51 51 49 50 59 61 62 66 69 68 69 70 70 72 74 74 75 75 75 75 75 75 75 74 74 73 73 73 73 73 73 73 73 73 72 72 71 70
58 54 46 41 42 48 49 53 55 52 51 50 51 50 52 58 59 59 66 66 67 69 69 70 69 71 72 73 74 74 73 74 74 74 74 73 73 73 73 73 73 73 73 73 72 72 71 70 69
55 49 44 41 45 47 54 55 52 54 52 53 56 49 51 55 57 59 61 62 65 67 68 69 69 69 68 70 71 72 72 73 73 73 73 72 72 72 72 72 72 72 72 72 71 71 70 69 68
52 50 41 40 47 48 54 56 55 56 53 53 53 51 49 55 58 58 59 59 60 62 63 66 67 68 68 69 67 68 70 70 71 70 69 68 68 69 68 67 70 71 71 71 70 69 68 67 66
52 47 43 46 47 50 53 53 52 52 54 50 53 51 53 56 57 56 56 57 58 60 61 61 65 67 68 70 67 66 67 68 67 67 65 63 66 67 66 65 68 69 69 69 68 67 64 63 63
50 45 48 51 49 50 53 53 56 52 50 51 50 51 52 55 54 55 55 56 55 55 59 58 61 65 66 69 68 67 68 69 69 67 65 65 66 66 66 62 63 64 65 66 66 64 62 57 53
47 48 51 52 53 54 54 51 55 53 49 55 55 54 52 52 53 54 55 55 55 54 55 60 56 59 63 65 68 65 65 65 66 65 65 66 65 63 63 62 61 58 58 56 56 54 54 53 53
47 51 53 54 54 53 53 55 53 53 55 52 56 54 51 52 52 53 53 53 54 53 54 56 55 55 57 61 64 66 65 66 65 65 65 65 64 63 61 61 61 58 56 54 53 53 53 53 53
48 49 52 53 53 51 54 51 54 53 55 51 52 53 52 51 51 50 52 51 51 51 52 53 52 54 55 56 61 64 64 65 65 65 65 64 63 62 61 61 60 59 57 55 52 53 52 52 54
50 51 51 52 52 52 51 49 50 53 49 49 51 52 51 51 51 47 49 50 49 50 50 51 52 53 54 55 63 62 62 62 62 63 65 65 64 62 60 59 58 57 57 56 55 55 54 54 54
51 47 50 50 51 51 52 49 52 51 48 51 50 49 49 50 49 51 51 49 49 49 49 50 51 53 54 56 60 59 60 60 59 59 61 62 62 61 59 57 56 56 56 55 54 53 53 52 51
46 44 41 47 49 49 52 43 53 50 50 51 48 47 48 49 50 48 49 48 48 47 48 49 53 54 57 56 57 57 57 58 57 57 57 58 59 59 57 56 54 54 54 53 51 51 49 48 45
41 37 37 46 50 47 47 44 49 45 47 49 47 47 47 47 48 48 48 47 47 47 47 48 50 53 55 53 55 54 54 54 55 55 55 55 56 56 55 53 52 51 50 50 50 44 47 44 43
38 36 37 39 45 44 43 45 50 49 46 48 47 46 46 47 51 51 47 47 46 46 46 47 48 51 53 52 52 52 51 50 51 52 52 52 52 53 52 51 50 49 47 45 43 43 40 43 43
42 38 38 42 47 44 44 44 49 51 44 46 46 46 48 49 55 49 47 46 44 44 45 45 48 48 52 51 50 50 48 48 47 48 49 49 49 49 50 49 49 48 43 41 44 43 43 38 40
41 38 38 43 45 45 44 44 49 48 48 49 52 51 50 51 47 46 45 44 44 45 45 45 51 48 53 54 51 50 47 45 45 46 46 47 46 46 45 45 42 41 41 40 40 41 36 34 34
40 39 38 42 42 41 38 38 41 48 48 50 50 54 53 54 54 47 44 45 44 44 44 46 49 50 51 50 47 46 47 46 45 44 43 43 44 42 41 41 40 39 39 41 38 38 39 33 32
38 45 43 40 38 33 37 32 40 46 48 47 52 50 53 54 52 49 47 44 44 46 46 46 47 52 51 49 46 48 44 43 45 43 42 41 41 40 39 39 38 37 36 36 36 37 36 35 32
43 44 42 39 35 32 31 33 37 38 44 51 53 53 53 54 51 49 47 49 48 46 45 46 46 49 49 49 49 48 44 40 43 41 39 39 38 38 37 36 35 35 34 34 34 34 34 34 32
46 42 39 34 34 29 35 36 40 39 47 49 56 53 52 49 47 46 45 45 44 44 45 45 45 46 47 49 48 48 42 41 40 39 38 38 37 34 34 35 34 34 33 33 32 32 33 32 32
43 41 31 28 23 29 30 31 45 45 47 50 54 54 46 46 44 42 41 41 41 42 45 46 46 46 46 46 47 46 45 44 43 41 40 37 36 31 32 33 33 33 33 32 32 32 32 32 32
41 42 31 22 22 28 31 29 38 46 50 50 49 50 43 44 43 41 40 41 41 42 45 46 47 46 46 45 43 44 44 44 44 44 42 42 40 35 34 32 32 31 32 32 32 32 31 30 31
39 37 43 36 16 22 35 36 44 45 45 44 47 43 43 43 43 40 39 39 40 41 44 45 46 45 46 45 42 41 44 43 42 41 41 40 39 35 32 32 31 31 31 32 31 31 30 30 29
41 43 33 30 22 17 30 31 36 44 47 47 48 46 44 42 42 39 38 38 39 41 44 45 45 43 44 44 42 42 43 43 42 40 38 36 36 35 32 31 31 31 31 31 31 29 29 29 28
38 36 34 35 30 23 20 37 40 47 48 48 48 47 45 43 41 39 37 37 38 39 39 41 42 43 42 42 41 42 41 40 39 38 38 37 34 32 32 32 32 31 31 30 30 30 29 29 28
36 38 38 31 26 26 27 39 43 44 44 45 48 46 41 41 41 38 36 36 35 36 36 37 41 42 42 41 40 40 39 38 38 38 36 35 32 33 32 32 32 32 31 31 31 30 30 29 28
MSLP
1013.47 1013.45 1013.56 1014.01 1016.20 1018.00 1018.50 1018.43 1018.20 1018.24 1018.40 1018.44 1018.58 1018.89 1019.21 1019.53 1019.40 1020.00 1019.20 1019.22 1019.13 1019.40 1019.59 1019.76 1019.99 1020.26 1020.45 1020.65 1020.84 1020.93 1021.05 1021.07 1021.23 1021.64 1021.78 1021.94 1022.05 1022.05 1022.04 1022.06 1022.03 1021.99 1021.87 1022.01 1021.97 1022.06 1022.07 1021.96 1022.14
1013.65 1013.58 1014.08 1015.71 1017.48 1018.91 1019.12 1018.36 1018.11 1018.01 1018.26 1018.47 1018.66 1019.03 1019.25 1019.50 1019.25 1019.16 1019.22 1019.12 1019.23 1019.44 1019.64 1019.86 1020.09 1020.38 1020.66 1020.81 1020.85 1020.97 1021.13 1021.43 1021.70 1021.92 1022.02 1022.23 1022.21 1022.44 1022.31 1022.57 1022.41 1022.43 1022.40 1022.41 1022.41 1022.39 1022.44 1022.47 1022.65
1013.67 1013.85 1015.45 1016.95 1018.60 1018.92 1018.57 1018.08 1017.96 1018.14 1018.34 1018.48 1019.01 1019.28 1019.36 1019.39 1019.21 1019.09 1018.82 1018.90 1019.19 1019.56 1019.78 1020.06 1020.18 1020.41 1020.61 1020.93 1021.02 1021.24 1021.42 1021.70 1021.89 1022.17 1022.26 1022.48 1022.65 1022.77 1022.79 1022.98 1022.78 1022.88 1022.72 1022.84 1022.87 1022.87 1022.96 1023.04 1023.22
1013.98 1014.87 1016.99 1017.50 1018.28 1018.11 1017.91 1017.71 1017.82 1018.37 1018.41 1018.58 1018.97 1019.64 1019.47 1019.17 1019.21 1019.12 1019.05 1018.97 1019.27 1019.68 1019.89 1020.14 1020.34 1020.51 1020.75 1020.91 1021.10 1021.42 1021.62 1021.81 1022.01 1022.22 1022.47 1022.77 1023.03 1023.12 1023.13 1023.20 1023.17 1023.30 1023.34 1023.34 1023.39 1023.47 1023.46 1023.61 1023.87
1014.77 1016.08 1017.50 1018.18 1018.09 1017.71 1017.60 1017.55 1017.91 1018.33 1018.43 1018.81 1019.06 1019.61 1019.65 1019.30 1019.20 1019.18 1019.13 1019.15 1019.47 1019.79 1019.99 1020.26 1020.45 1020.67 1020.83 1021.09 1021.26 1021.53 1021.75 1022.05 1022.34 1022.77 1022.93 1022.94 1023.13 1023.22 1023.46 1023.43 1023.65 1023.60 1023.59 1023.74 1023.80 1023.86 1023.94 1024.17 1024.36
1015.83 1016.92 1018.19 1018.53 1018.01 1017.52 1017.40 1017.45 1017.86 1018.21 1018.50 1018.95 1019.34 1019.74 1019.73 1019.45 1019.44 1019.47 1019.42 1019.50 1019.43 1019.57 1020.02 1020.27 1020.51 1020.74 1020.99 1021.25 1021.54 1021.80 1022.06 1022.37 1022.58 1022.77 1022.94 1023.15 1023.39 1023.61 1023.72 1023.83 1023.89 1023.96 1024.17 1024.21 1024.29 1024.33 1024.61 1024.65 1025.01
1016.05 1017.62 1018.42 1018.34 1018.00 1017.43 1017.21 1017.38 1017.87 1018.14 1018.48 1018.78 1019.06 1020.01 1019.87 1019.69 1019.63 1019.74 1019.74 1019.80 1019.78 1019.81 1020.01 1020.28 1020.50 1020.84 1021.15 1021.41 1021.67 1021.83 1022.06 1022.35 1022.63 1022.85 1023.12 1023.40 1023.69 1023.94 1024.12 1024.19 1024.25 1024.39 1024.56 1024.68 1024.77 1025.01 1025.15 1025.45 1025.67
1016.36 1017.54 1018.61 1018.43 1018.06 1017.25 1016.92 1017.27 1017.23 1017.78 1018.41 1018.74 1018.95 1019.55 1019.76 1019.53 1019.83 1019.97 1020.06 1020.25 1020.35 1020.37 1020.48 1020.60 1020.76 1020.88 1021.20 1021.46 1021.69 1021.92 1022.12 1022.40 1022.72 1023.07 1023.37 1023.69 1023.96 1024.22 1024.44 1024.58 1024.71 1024.85 1024.97 1025.17 1025.35 1025.61 1025.80 1026.10 1026.30
1016.31 1017.55 1018.49 1018.13 1018.01 1016.91 1016.81 1017.10 1017.41 1017.72 1018.25 1018.74 1018.94 1019.17 1019.28 1019.53 1020.08 1020.42 1020.60 1020.76 1020.76 1020.82 1020.86 1020.94 1020.93 1020.95 1021.16 1021.34 1021.60 1021.93 1022.16 1022.41 1022.79 1023.20 1023.56 1023.91 1024.14 1024.41 1024.70 1024.88 1025.13 1025.33 1025.52 1025.75 1025.98 1026.18 1026.44 1026.65 1026.86
1016.64 1017.72 1017.49 1017.01 1016.92 1016.67 1016.70 1016.95 1017.40 1017.89 1018.39 1018.77 1018.99 1019.15 1019.52 1019.83 1020.25 1020.58 1020.73 1020.89 1020.97 1021.09 1021.14 1021.16 1021.31 1021.05 1021.24 1021.32 1021.60 1021.88 1022.11 1022.38 1022.68 1023.11 1023.64 1023.98 1024.27 1024.56 1024.94 1025.21 1025.42 1025.76 1026.02 1026.28 1026.52 1026.71 1026.87 1027.08 1027.44
1016.68 1016.91 1016.85 1016.52 1016.45 1016.54 1016.70 1017.03 1017.26 1017.79 1018.52 1018.15 1018.32 1018.89 1019.65 1020.09 1020.37 1020.56 1020.71 1020.74 1020.82 1021.01 1021.11 1021.15 1021.50 1021.50 1021.48 1021.55 1021.59 1021.86 1022.12 1022.41 1022.57 1022.98 1023.51 1023.89 1024.36 1024.77 1025.13 1025.45 1025.74 1026.16 1026.58 1026.99 1027.23 1027.43 1027.53 1027.67 1027.81
1016.45 1016.53 1016.44 1016.28 1016.27 1016.52 1016.71 1016.89 1017.22 1017.61 1017.25 1017.57 1017.92 1018.51 1019.48 1019.96 1020.21 1020.27 1020.46 1020.69 1020.88 1021.12 1021.27 1021.36 1021.65 1021.71 1021.73 1021.82 1021.78 1021.76 1021.96 1022.18 1022.53 1022.88 1023.27 1023.79 1024.22 1024.73 1025.21 1025.66 1026.05 1026.37 1026.96 1027.45 1027.76 1028.02 1028.23 1028.27 1028.48
1016.29 1016.46 1016.41 1016.33 1016.37 1016.48 1016.65 1016.93 1017.24 1017.20 1017.21 1017.67 1018.18 1018.84 1019.48 1019.89 1020.03 1020.27 1020.45 1020.75 1021.01 1021.25 1021.42 1021.62 1021.82 1021.86 1021.91 1021.93 1021.83 1021.76 1021.69 1021.99 1022.17 1022.54 1023.05 1023.54 1024.22 1024.63 1025.13 1025.69 1026.12 1026.40 1026.90 1027.57 1028.02 1028.23 1028.54 1028.80 1028.98
1016.59 1016.63 1016.68 1016.59 1016.64 1016.67 1016.90 1017.26 1017.42 1016.92 1017.41 1018.09 1018.64 1018.97 1019.38 1019.70 1019.83 1020.32 1020.65 1020.72 1021.01 1021.28 1021.51 1021.67 1021.85 1021.86 1021.98 1022.01 1021.71 1021.83 1021.90 1022.10 1022.30 1022.53 1022.86 1023.37 1023.89 1024.54 1025.04 1025.72 1026.29 1026.55 1026.88 1027.63 1028.05 1028.36 1028.72 1029.08 1029.49
1017.00 1017.19 1017.12 1016.95 1016.97 1017.05 1017.21 1017.77 1017.29 1017.17 1017.83 1018.45 1018.97 1019.19 1019.57 1019.73 1020.00 1019.77 1019.97 1020.50 1020.81 1021.16 1021.38 1021.57 1021.74 1021.83 1021.97 1021.99 1021.89 1022.06 1022.13 1022.31 1022.62 1022.95 1023.11 1023.43 1023.91 1024.49 1025.05 1025.79 1026.32 1026.64 1027.01 1027.71 1028.28 1028.70 1029.11 1029.65 1030.35
1017.97 1018.09 1018.14 1017.50 1017.49 1017.49 1017.74 1017.61 1017.07 1017.26 1018.03 1018.55 1018.99 1019.36 1019.49 1019.46 1019.38 1019.75 1019.96 1020.27 1020.63 1021.01 1021.33 1021.50 1021.52 1021.55 1021.77 1022.00 1022.01 1022.21 1022.40 1022.51 1022.88 1023.14 1023.32 1023.58 1024.04 1024.60 1025.22 1025.88 1026.41 1026.70 1027.30 1027.85 1028.55 1029.02 1029.69 1030.34 1031.08
1019.22 1019.09 1019.01 1018.22 1017.89 1018.00 1018.26 1017.94 1017.35 1017.74 1018.39 1018.76 1018.98 1019.19 1019.33 1019.30 1019.29 1019.31 1019.43 1019.88 1020.31 1020.64 1021.01 1021.31 1021.46 1021.58 1021.82 1022.09 1022.19 1022.49 1022.70 1022.98 1023.21 1023.33 1023.51 1023.77 1024.02 1024.53 1025.21 1025.91 1026.63 1026.99 1027.72 1028.34 1028.77 1029.80 1029.78 1030.79 1031.66
1019.44 1019.57 1019.31 1018.94 1018.39 1018.53 1018.66 1017.93 1017.78 1017.87 1018.43 1018.53 1018.65 1018.77 1018.92 1018.87 1017.99 1018.40 1018.97 1019.46 1019.91 1020.28 1020.63 1020.96 1021.22 1021.38 1021.68 1022.20 1022.58 1022.84 1023.13 1023.42 1023.71 1023.66 1023.92 1024.08 1024.46 1024.77 1025.41 1025.86 1026.49 1027.13 1027.93 1028.95 1029.60 1030.10 1030.94 1031.11 1031.71
1019.06 1019.42 1019.42 1019.01 1018.45 1018.83 1018.55 1018.15 1017.68 1017.48 1018.03 1017.99 1017.92 1017.83 1017.62 1017.60 1016.35 1017.69 1018.31 1019.00 1019.61 1020.01 1020.36 1020.61 1020.94 1021.19 1021.49 1022.13 1022.65 1022.94 1023.42 1023.87 1024.05 1024.31 1024.40 1024.53 1024.76 1025.21 1025.33 1025.92 1026.61 1027.21 1028.06 1028.99 1029.46 1030.16 1030.93 1032.12 1032.27
1019.11 1019.52 1019.60 1019.08 1018.75 1019.05 1018.57 1018.09 1017.20 1017.14 1016.67 1016.15 1016.19 1016.25 1016.14 1016.13 1016.18 1016.74 1017.57 1018.27 1018.79 1019.24 1019.77 1020.22 1020.35 1020.78 1021.11 1021.53 1022.14 1022.46 1023.28 1024.13 1024.41 1024.74 1024.82 1024.99 1025.06 1025.41 1025.59 1026.10 1026.99 1027.66 1028.38 1029.17 1029.50 1029.79 1031.14 1032.23 1032.51
1019.17 1019.49 1019.52 1019.38 1019.12 1019.09 1018.85 1017.62 1016.76 1015.24 1015.23 1014.94 1014.68 1014.39 1014.54 1014.49 1014.84 1015.65 1016.60 1017.06 1017.99 1018.57 1018.95 1019.43 1019.89 1020.41 1020.81 1021.32 1022.14 1022.85 1023.60 1024.23 1024.71 1024.99 1025.23 1025.46 1025.37 1025.80 1026.06 1026.59 1027.18 1027.82 1028.19 1028.89 1029.37 1029.69 1030.04 1031.73 1032.62
1018.91 1018.62 1019.08 1019.56 1020.13 1019.91 1019.10 1017.95 1016.26 1015.07 1014.33 1014.01 1013.19 1013.26 1012.87 1013.16 1013.74 1014.45 1015.29 1016.22 1016.77 1017.02 1017.96 1018.61 1019.27 1019.74 1020.36 1020.91 1021.66 1021.90 1022.56 1023.52 1024.03 1024.60 1025.27 1025.71 1025.75 1026.23 1026.60 1026.95 1027.36 1027.81 1028.35 1028.91 1029.27 1029.47 1029.93 1030.66 1031.96
1018.29 1018.54 1019.32 1019.81 1020.39 1020.38 1019.46 1019.29 1015.18 1014.73 1014.11 1012.95 1012.01 1011.61 1011.65 1011.98 1012.70 1013.45 1014.15 1014.64 1015.36 1016.57 1017.21 1018.05 1018.86 1019.40 1019.93 1020.48 1021.07 1021.61 1022.28 1022.92 1023.65 1024.55 1025.37 1025.78 1026.22 1026.54 1026.98 1027.27 1027.67 1028.08 1028.52 1028.90 1029.11 1029.77 1030.18 1030.48 1031.23
1018.13 1018.83 1019.91 1020.70 1020.99 1020.46 1018.28 1018.28 1014.37 1013.70 1012.31 1011.89 1010.83 1010.60 1010.68 1011.57 1012.34 1013.05 1013.64 1014.43 1015.11 1016.03 1016.81 1017.52 1018.32 1018.92 1019.52 1020.09 1020.68 1021.19 1021.90 1022.70 1023.65 1024.63 1025.25 1025.97 1026.37 1027.06 1027.35 1027.58 1027.87 1028.24 1028.64 1028.85 1029.28 1029.84 1030.05 1030.49 1030.90
1018.02 1018.96 1020.41 1021.26 1021.66 1019.24 1018.00 1017.93 1013.27 1011.74 1011.39 1010.89 1010.56 1009.97 1010.51 1011.36 1012.18 1012.98 1013.68 1014.32 1014.97 1015.54 1016.24 1017.04 1017.69 1018.40 1019.10 1019.79 1020.43 1020.92 1021.54 1022.19 1022.71 1023.61 1024.53 1025.61 1026.46 1027.31 1027.62 1027.82 1028.20 1028.47 1028.65 1028.90 1029.42 1029.93 1030.40 1030.82 1031.33
1017.69 1017.93 1019.14 1020.10 1021.12 1019.27 1018.17 1016.01 1012.23 1010.64 1010.05 1009.87 1009.83 1009.93 1010.74 1011.62 1012.21 1012.84 1013.50 1014.04 1014.59 1015.17 1015.62 1016.17 1016.87 1017.71 1018.55 1019.30 1020.02 1020.73 1021.29 1021.95 1022.68 1023.39 1023.85 1024.43 1025.26 1026.24 1027.18 1027.78 1028.16 1028.45 1028.63 1029.14 1029.67 1030.16 1030.73 1031.17 1031.61
1017.14 1017.56 1017.51 1018.94 1020.82 1020.37 1016.32 1013.39 1011.49 1010.37 1009.88 1009.86 1009.48 1010.05 1010.79 1011.56 1012.23 1012.89 1013.52 1013.86 1014.40 1014.86 1015.27 1015.84 1016.40 1017.17 1017.87 1018.72 1019.65 1020.37 1020.99 1021.60 1022.32 1023.13 1023.96 1024.39 1024.82 1025.90 1026.99 1027.62 1028.23 1028.54 1028.85 1029.32 1029.85 1030.37 1030.98 1031.49 1032.03
1015.59 1016.17 1017.72 1018.82 1020.13 1019.52 1015.23 1013.69 1011.55 1010.29 1009.46 1009.12 1009.45 1009.64 1010.30 1011.15 1012.09 1012.80 1013.46 1013.77 1014.24 1014.58 1015.01 1015.56 1016.23 1016.93 1017.57 1018.34 1019.19 1019.95 1020.57 1021.29 1022.07 1022.94 1023.71 1024.33 1025.09 1025.72 1026.79 1027.64 1028.13 1028.58 1029.07 1029.55 1030.03 1030.79 1031.36 1031.71 1032.34
1015.99 1016.02 1016.82 1017.56 1018.22 1017.89 1016.28 1011.27 1009.24 1008.80 1008.21 1008.60 1008.83 1009.21 1009.98 1010.69 1011.77 1012.48 1013.12 1013.40 1013.89 1014.39 1014.84 1015.12 1015.71 1016.52 1017.35 1018.09 1018.87 1019.55 1020.29 1021.02 1021.81 1022.57 1023.40 1024.07 1024.96 1025.79 1026.55 1027.33 1028.00 1028.65 1029.25 1029.80 1030.24 1030.89 1031.51 1031.87 1032.23
1014.64 1014.45 1015.16 1016.21 1017.29 1017.26 1015.96 1009.95 1008.09 1008.15 1008.08 1008.31 1008.47 1009.17 1009.62 1010.34 1011.32 1012.19 1013.01 1013.44 1014.01 1014.52 1014.97 1015.34 1015.70 1016.11 1016.72 1017.70 1018.60 1019.35 1020.01 1020.76 1021.56 1022.30 1023.12 1023.95 1024.77 1025.68 1026.34 1027.22 1027.92 1028.65 1029.26 1029.80 1030.23 1030.77 1031.28 1031.61 1032.08
Wind_Speed
6 5 2 6 6 6 0 3 1 4 1 0 3 4 5 3 3 4 3 6 6 7 6 8 12 12 12 12 12 12 14 15 17 16 16 16 16 16 16 16 16 16 17 16 17 17 18 19 20
3 2 6 3 7 4 5 3 4 4 5 7 4 2 5 1 1 2 3 3 7 7 6 7 11 13 12 11 10 11 14 15 15 15 16 16 16 16 17 15 16 16 16 17 17 18 17 19 19
2 4 5 6 4 4 5 4 4 3 6 1 4 4 3 3 0 2 2 8 9 7 6 7 11 12 12 12 12 11 13 14 15 15 15 16 16 16 16 15 16 16 17 17 17 18 18 18 18
2 5 6 6 2 3 3 5 5 6 3 1 4 5 3 1 1 1 4 7 9 6 6 8 10 11 11 11 12 12 12 13 14 14 14 15 15 15 16 16 16 16 17 17 17 18 18 18 18
5 4 5 4 3 2 3 3 7 6 2 2 2 4 2 2 3 4 7 6 9 6 6 7 9 11 11 10 12 11 11 13 14 14 14 14 14 14 14 15 15 16 17 17 17 18 18 18 18
5 4 5 2 3 3 1 4 6 3 3 3 4 6 4 4 1 2 5 5 3 10 7 7 9 10 10 10 11 11 11 12 13 14 14 14 13 13 14 15 16 16 16 16 17 17 17 18 18
7 5 5 4 3 1 4 8 5 6 5 5 8 6 3 3 2 3 5 5 5 4 5 6 7 8 9 9 9 10 10 11 12 12 12 11 11 11 11 12 15 15 16 17 18 17 18 19 19
6 6 4 3 6 4 4 6 3 6 4 3 3 5 4 5 5 5 6 6 6 5 6 4 4 6 6 6 8 8 9 10 11 10 10 10 10 10 9 9 10 14 15 17 18 19 19 19 19
3 6 3 6 7 5 4 4 1 1 6 2 3 4 2 6 7 5 4 3 4 4 4 4 4 5 5 5 6 7 9 11 11 10 10 8 4 6 6 9 12 14 14 16 17 18 19 18 19
6 5 10 6 5 3 4 3 8 4 3 4 3 2 3 6 6 7 6 7 4 4 3 4 1 4 3 3 5 6 5 5 6 7 7 4 4 5 5 8 12 13 15 16 16 17 17 12 6
3 5 5 3 2 3 5 2 6 7 4 8 11 7 8 6 8 9 7 7 7 4 1 4 1 2 1 1 1 2 2 3 4 7 7 6 5 4 4 3 4 5 8 5 7 6 5 7 6
3 1 4 2 0 3 4 5 4 7 7 2 8 6 7 10 11 10 10 8 7 5 4 3 1 1 1 0 2 1 3 3 4 6 8 7 5 5 4 3 3 5 4 6 5 4 5 8 9
2 1 1 1 2 1 2 2 6 7 6 3 4 8 11 8 8 5 6 5 5 6 5 4 1 2 2 2 3 2 3 3 4 6 7 6 5 5 5 4 3 5 6 5 5 5 6 7 9
1 1 2 1 2 2 2 1 0 4 4 2 6 11 10 10 10 4 7 8 8 6 6 3 3 3 2 3 5 3 2 3 3 3 5 8 7 6 6 5 4 5 6 5 5 5 6 8 9
2 2 4 3 2 3 3 6 11 3 3 5 8 8 8 10 8 13 8 8 8 5 6 6 4 3 3 4 3 3 2 3 3 3 5 7 7 8 8 6 5 5 6 9 6 7 7 9 9
4 5 3 2 3 2 5 8 8 3 7 11 10 9 9 11 11 7 7 7 8 6 7 5 4 5 4 3 3 3 3 3 3 4 4 7 8 8 7 6 5 6 6 6 5 6 8 8 8
7 3 3 8 6 2 4 6 4 1 5 9 9 9 9 9 10 10 10 9 8 8 7 6 6 6 5 4 5 4 5 4 3 3 4 6 8 9 8 6 5 6 5 5 6 4 7 9 9
6 4 4 5 2 2 4 14 11 6 6 11 9 10 10 11 20 11 9 9 8 8 7 6 6 7 7 4 4 4 4 4 3 3 3 6 5 8 8 7 8 6 7 6 4 8 5 8 10
6 4 4 5 4 3 8 11 11 8 6 11 11 11 14 16 18 9 9 9 8 7 8 8 8 7 8 5 4 3 3 2 3 3 4 5 6 6 8 7 7 6 7 7 9 9 13 5 6
3 3 5 6 3 4 9 14 14 9 10 12 16 16 16 13 9 9 10 11 12 10 10 9 11 10 9 6 3 3 4 3 4 2 4 4 7 5 7 8 6 7 8 9 7 8 5 3 2
5 6 6 7 3 4 4 9 9 9 7 8 10 15 12 19 18 12 13 16 11 12 13 12 12 11 9 8 7 5 6 4 3 2 3 2 6 5 6 7 7 6 6 8 5 6 8 5 3
6 9 5 3 2 6 2 9 7 7 11 9 14 12 20 19 12 9 14 14 16 18 12 13 13 13 10 12 8 12 7 6 3 4 4 3 5 6 6 7 7 6 5 7 5 4 4 6 6
7 6 7 3 3 4 4 1 5 1 8 14 13 16 16 13 12 14 15 17 14 13 13 12 11 11 11 12 11 9 8 4 6 6 8 6 5 6 6 6 7 7 5 6 7 6 6 3 5
8 6 6 4 2 7 12 10 12 8 13 7 12 11 11 8 8 8 8 8 11 10 12 13 14 12 12 12 12 12 12 11 10 8 7 5 5 4 5 6 6 6 6 7 6 6 7 6 6
3 6 2 4 1 13 3 3 18 4 7 11 14 14 4 5 6 7 10 10 11 14 15 13 15 13 13 12 12 11 12 12 15 15 10 11 7 3 6 5 6 5 6 7 7 7 7 6 6
9 9 8 9 5 8 5 10 11 13 11 10 10 11 4 6 6 8 9 10 11 13 17 16 17 15 15 14 11 10 11 8 8 10 10 10 10 8 8 6 6 7 8 7 7 6 5 7 7
7 9 4 1 2 3 6 8 9 8 13 8 14 6 6 7 8 8 8 8 9 12 15 16 16 14 15 14 11 10 11 12 11 10 9 7 8 8 8 8 8 7 7 8 7 6 6 6 5
7 7 4 2 3 6 7 7 9 8 11 12 14 10 8 6 7 6 7 8 7 9 11 12 13 13 14 13 11 11 12 11 11 10 11 11 9 10 10 8 8 8 7 7 7 6 6 7 4
4 5 2 5 6 6 4 12 10 12 11 8 8 7 6 7 8 7 7 7 8 7 9 11 12 14 13 13 11 12 11 12 11 12 11 11 10 10 11 10 10 9 9 7 7 6 7 8 7
2 7 8 7 6 4 3 19 3 7 6 7 7 4 1 3 6 7 7 7 7 8 8 10 11 13 14 12 11 12 12 11 12 12 12 11 11 10 10 10 9 9 8 8 9 9 7 9 8
Wind_Direction
344 335 59 43 57 64 248 259 273 139 222 189 80 129 164 77 138 199 265 161 120 134 142 134 131 132 130 132 129 123 112 102 98 94 93 89 87 84 79 75 72 70 73 75 75 76 74 76 77
341 307 44 75 85 73 267 260 190 189 152 136 86 71 51 81 201 137 127 177 156 142 132 129 133 136 135 129 116 112 109 105 104 100 94 90 85 83 79 77 77 77 77 77 79 78 77 80 78
151 37 78 89 111 163 197 215 178 107 142 110 98 54 146 152 213 190 209 140 126 131 131 141 143 138 135 131 127 126 121 119 112 107 101 97 91 85 82 78 76 75 75 76 78 80 81 79 77
68 19 39 80 174 214 208 183 160 132 256 88 119 81 309 271 212 280 151 137 129 137 131 148 143 138 132 129 129 132 130 124 117 107 100 97 92 89 84 80 78 77 78 79 81 80 79 80 78
35 58 57 77 294 273 249 176 152 160 116 112 154 187 190 304 319 330 163 153 146 143 143 150 148 137 132 131 136 139 136 133 127 124 114 104 98 91 88 84 83 81 79 81 82 81 79 81 77
47 91 64 178 252 292 188 169 142 154 140 147 91 141 204 312 290 18 122 132 170 153 157 155 152 143 142 145 146 149 149 141 133 126 119 114 106 100 91 87 83 81 81 82 82 81 81 80 76
113 85 176 166 193 283 177 149 168 172 157 222 159 135 264 281 116 70 95 87 104 107 141 158 157 158 157 152 152 153 148 144 140 136 130 123 117 109 100 95 95 91 85 83 80 79 78 77 76
101 91 111 212 194 231 180 172 169 162 187 103 169 195 221 208 135 105 85 83 86 93 97 99 137 143 153 155 153 150 146 143 142 142 134 134 129 120 109 90 89 90 88 85 83 79 77 76 75
118 66 167 200 155 232 166 150 102 103 119 224 206 165 265 133 123 105 100 77 77 68 99 79 130 156 167 165 164 160 157 157 149 146 146 136 134 128 117 97 77 73 80 81 83 83 82 79 76
83 114 210 185 196 213 197 165 169 155 135 244 272 227 114 138 155 159 169 165 156 159 157 102 14 120 89 172 167 170 177 166 155 154 153 139 131 115 103 94 88 77 73 79 80 83 84 79 73
162 169 187 218 219 192 181 202 177 134 235 220 205 186 165 166 179 180 190 181 181 173 153 128 93 33 135 205 205 183 166 165 154 148 155 143 120 115 110 110 92 84 73 64 66 61 55 68 71
95 121 174 175 269 124 169 127 197 192 217 324 227 168 166 175 193 193 195 190 173 180 184 139 148 221 232 231 261 206 173 175 159 163 150 147 146 135 128 115 112 102 93 89 78 75 66 70 68
85 208 240 8 103 172 155 209 225 239 239 2 123 158 187 197 204 212 205 199 183 195 191 198 236 253 252 233 227 194 163 169 159 151 157 140 142 142 124 116 105 106 112 104 95 90 83 76 79
140 147 328 349 302 299 213 257 141 271 116 124 174 201 201 202 202 192 201 205 198 196 200 195 233 254 244 233 212 176 136 128 118 117 147 154 152 144 125 117 112 106 107 96 89 93 87 80 82
68 346 330 223 218 246 148 301 240 192 134 204 217 223 225 226 204 217 203 202 191 203 193 201 201 218 232 220 157 132 128 114 114 110 113 130 135 135 131 128 119 113 106 105 99 91 88 86 80
48 50 17 300 142 318 129 261 268 194 169 224 225 230 233 236 229 231 215 205 196 184 193 189 199 174 175 182 127 116 102 103 111 113 106 114 121 127 120 124 121 112 111 111 110 109 97 92 90
10 236 211 318 200 131 173 260 261 102 211 251 235 237 239 257 252 232 217 204 195 192 184 188 194 175 154 135 99 93 85 76 84 102 116 112 120 126 126 128 118 108 106 100 119 77 112 111 98
200 209 247 244 221 182 237 261 271 251 199 242 246 242 241 242 244 225 209 202 195 191 187 181 176 164 136 119 105 91 80 65 53 72 92 112 107 116 122 118 119 120 111 108 91 109 72 108 113
134 177 215 248 249 191 240 262 264 271 228 247 242 241 238 232 243 206 199 194 193 191 182 179 173 173 151 150 155 135 122 101 64 64 74 104 109 128 129 120 122 118 124 132 128 119 117 98 122
144 181 250 277 250 186 272 260 260 240 240 218 228 234 235 237 220 204 195 192 196 189 186 183 187 174 172 165 119 125 129 90 92 83 82 95 118 119 119 128 123 120 123 130 140 142 122 98 348
212 190 215 220 313 241 307 282 244 262 242 261 243 238 237 231 232 210 197 201 188 192 189 185 188 177 173 139 117 104 93 90 99 77 84 76 105 104 114 114 126 129 135 148 145 143 126 140 37
241 203 169 200 89 252 148 287 263 238 250 233 250 231 239 236 234 208 199 196 196 203 183 181 180 179 170 156 154 169 158 157 164 140 125 110 109 117 120 126 133 134 130 137 147 143 142 133 136
224 130 161 150 181 320 188 202 242 317 267 259 247 242 242 237 218 213 202 205 205 184 182 177 173 182 166 169 170 171 151 111 123 123 129 124 109 112 126 132 132 130 131 134 134 128 135 123 137
143 87 58 52 102 277 173 166 273 192 218 254 260 256 241 236 232 224 198 179 185 174 175 173 174 177 170 171 173 176 153 147 141 146 145 147 131 119 132 134 131 131 132 132 125 126 119 116 103
146 105 306 325 12 242 83 156 243 271 261 221 245 259 265 210 201 204 187 184 175 180 180 178 179 180 174 174 178 171 163 165 164 161 159 153 147 150 169 146 147 143 134 120 120 113 111 115 116
200 165 172 208 206 269 141 230 247 243 267 246 256 261 189 192 217 215 199 188 184 184 184 181 181 175 174 175 172 169 162 164 166 174 164 163 164 163 160 151 148 139 127 120 113 109 109 114 113
198 207 222 346 89 0 241 282 296 264 270 278 251 248 246 240 240 222 195 188 180 184 187 187 180 176 176 174 164 167 165 163 167 163 167 161 154 152 152 150 144 136 126 126 122 125 118 115 125
163 169 80 342 197 255 268 267 229 264 251 247 267 247 228 234 253 223 200 186 184 187 183 180 179 178 174 169 170 171 169 166 161 158 167 162 152 150 148 147 147 141 135 131 125 123 127 130 132
137 204 152 138 155 184 297 265 212 221 231 222 261 275 229 216 233 225 206 188 179 170 177 175 171 168 171 174 170 168 168 165 161 169 168 166 151 153 156 158 152 150 144 141 133 136 146 140 136
286 217 163 148 222 242 174 269 172 230 273 224 250 288 238 231 217 210 200 176 170 176 173 180 180 177 176 172 168 173 164 164 170 173 167 159 155 158 155 154 152 150 151 153 153 155 162 153 149